カタログに戻る

FENGYUN 1C DEB

運用中SSO
NORAD 29971·DEBRIS·🇨🇳 China

打ち上げ May 10, 1999 から Taiyuan Satellite Launch Center

Loading…

次のパス (今後24時間)

TLE

最新Source: Space-Track

元期: Sep 14, 2026, 21:52 UTC

1 29971U 99025KV  26257.91172660  .00000998  00000-0  49779-3 0  9992
2 29971  98.6527 296.3875 0023620  93.8554  30.6797 14.18959940 12537

AllMySatでFENGYUN 1C DEBをリアルタイム追跡

Download on the App Store